When you browse on this site, cookies collect data to enhance your experience and personalize the content and advertising you see.
Visit our Privacy Policy to learn more. By continuing to use the site, you agree to this use of cookies and data.
  • In Slovakia
  • List of Countries
  • For 7 days
  • Water Temperature
  • Weather Map
  • Weather Widgets
  • user-avatar
    Login

    Hourly Weather Mastilovichi

    Today, 17 September, Tuesday

    Time Temperature Precipitation Wind Pressure Humidity
    00:00 +7°C° 0 mm 5 mps 732 mmHg 89%
    01:00 +7°C° 0 mm 5 mps 731 mmHg 89%
    02:00 +6°C° 0 mm 4 mps 731 mmHg 90%
    03:00 +6°C° 0 mm 5 mps 731 mmHg 91%
    04:00 +6°C° 0 mm 5 mps 731 mmHg 92%
    05:00 +4°C° 0 mm 6 mps 731 mmHg 93%
    06:00 +5°C° 0 mm 6 mps 731 mmHg 90%
    07:00 +7°C° 0 mm 6 mps 731 mmHg 86%
    08:00 +6°C° 0 mm 7 mps 731 mmHg 83%
    09:00 +9°C° 0 mm 7 mps 731 mmHg 76%
    10:00 +10°C° 0 mm 7 mps 731 mmHg 69%
    11:00 +11°C° 0 mm 7 mps 731 mmHg 61%
    12:00 +12°C° 0.1 mm 7 mps 731 mmHg 59%
    13:00 +12°C° 0.1 mm 7 mps 730 mmHg 57%
    14:00 +12°C° 0.1 mm 7 mps 730 mmHg 54%
    15:00 +13°C° 0 mm 6 mps 730 mmHg 58%
    16:00 +12°C° 0 mm 5 mps 729 mmHg 62%
    17:00 +12°C° 0 mm 5 mps 729 mmHg 65%
    18:00 +11°C° 0.3 mm 4 mps 728 mmHg 71%
    19:00 +10°C° 0.3 mm 4 mps 728 mmHg 77%
    20:00 +8°C° 0.3 mm 4 mps 728 mmHg 83%
    21:00 +8°C° 0.3 mm 4 mps 727 mmHg 85%
    22:00 +7°C° 0.3 mm 5 mps 726 mmHg 87%
    23:00 +7°C° 0.3 mm 5 mps 726 mmHg 89%

    Tomorrow, 18 September, Wednesday

    Time Temperature Precipitation Wind Pressure Humidity
    00:00 +6°C° 0 mm 5 mps 726 mmHg 90%
    01:00 +6°C° 0 mm 5 mps 726 mmHg 91%
    02:00 +5°C° 0 mm 4 mps 725 mmHg 92%
    03:00 +4°C° 0 mm 4 mps 725 mmHg 93%
    04:00 +4°C° 0 mm 4 mps 725 mmHg 94%
    05:00 +4°C° 0 mm 4 mps 725 mmHg 95%
    06:00 +4°C° 0 mm 4 mps 725 mmHg 92%
    07:00 +5°C° 0 mm 4 mps 725 mmHg 90%
    08:00 +5°C° 0 mm 4 mps 726 mmHg 88%
    09:00 +5°C° 0.6 mm 5 mps 726 mmHg 89%
    10:00 +5°C° 0.6 mm 5 mps 727 mmHg 89%
    11:00 +5°C° 0.6 mm 5 mps 727 mmHg 90%
    12:00 +6°C° 0.3 mm 5 mps 728 mmHg 88%
    13:00 +7°C° 0.3 mm 5 mps 728 mmHg 85%
    14:00 +7°C° 0.3 mm 6 mps 729 mmHg 83%
    15:00 +8°C° 0.1 mm 5 mps 730 mmHg 81%
    16:00 +8°C° 0.1 mm 5 mps 730 mmHg 79%
    17:00 +10°C° 0.1 mm 4 mps 731 mmHg 77%
    18:00 +8°C° 0 mm 4 mps 732 mmHg 80%
    19:00 +7°C° 0 mm 4 mps 732 mmHg 84%
    20:00 +6°C° 0 mm 4 mps 732 mmHg 88%
    21:00 +5°C° 0 mm 4 mps 733 mmHg 90%
    22:00 +5°C° 0 mm 4 mps 733 mmHg 92%
    23:00 +5°C° 0 mm 4 mps 734 mmHg 93%

    Day after tomorrow, 19 September, Thursday

    Time Temperature Precipitation Wind Pressure Humidity
    00:00 +5°C° 0 mm 4 mps 734 mmHg 94%
    01:00 +5°C° 0 mm 4 mps 734 mmHg 95%
    02:00 +5°C° 0 mm 4 mps 735 mmHg 95%
    03:00 +5°C° 0 mm 4 mps 735 mmHg 95%
    04:00 +5°C° 0 mm 4 mps 736 mmHg 95%
    05:00 +5°C° 0 mm 4 mps 736 mmHg 95%
    06:00 +6°C° 0.2 mm 4 mps 736 mmHg 94%
    07:00 +6°C° 0.2 mm 4 mps 737 mmHg 94%
    08:00 +7°C° 0.2 mm 3 mps 737 mmHg 93%
    09:00 +7°C° 0.4 mm 3 mps 737 mmHg 89%
    10:00 +8°C° 0.4 mm 3 mps 738 mmHg 85%
    11:00 +9°C° 0.4 mm 3 mps 738 mmHg 81%
    12:00 +10°C° 0.1 mm 3 mps 739 mmHg 74%
    13:00 +10°C° 0.1 mm 3 mps 739 mmHg 67%
    14:00 +11°C° 0.1 mm 3 mps 739 mmHg 60%
    15:00 +11°C° 0 mm 3 mps 739 mmHg 63%
    16:00 +12°C° 0 mm 2 mps 739 mmHg 65%
    17:00 +10°C° 0 mm 2 mps 738 mmHg 67%
    18:00 +9°C° 0.2 mm 2 mps 738 mmHg 73%
    19:00 +9°C° 0.2 mm 3 mps 738 mmHg 78%
    20:00 +8°C° 0.2 mm 3 mps 738 mmHg 83%
    21:00 +6°C° 0 mm 4 mps 738 mmHg 86%
    22:00 +5°C° 0 mm 4 mps 738 mmHg 89%
    23:00 +5°C° 0 mm 5 mps 738 mmHg 91%

    20 September, Friday

    Time Temperature Precipitation Wind Pressure Humidity
    00:00 +3°C° 0.1 mm 5 mps 738 mmHg 91%
    01:00 +3°C° 0.1 mm 5 mps 738 mmHg 91%
    02:00 +3°C° 0.1 mm 5 mps 738 mmHg 92%
    03:00 +3°C° 0.8 mm 6 mps 738 mmHg 91%
    04:00 +3°C° 0.8 mm 6 mps 738 mmHg 91%
    05:00 +3°C° 0.8 mm 7 mps 738 mmHg 90%
    06:00 +3°C° 0.3 mm 7 mps 739 mmHg 89%
    07:00 +3°C° 0.3 mm 6 mps 739 mmHg 88%
    08:00 +3°C° 0.3 mm 6 mps 739 mmHg 87%
    09:00 +3°C° 0 mm 6 mps 739 mmHg 84%
    10:00 +4°C° 0 mm 6 mps 740 mmHg 80%
    11:00 +6°C° 0 mm 5 mps 740 mmHg 77%
    12:00 +6°C° 0.2 mm 5 mps 740 mmHg 76%
    13:00 +7°C° 0.2 mm 5 mps 740 mmHg 75%
    14:00 +7°C° 0.2 mm 5 mps 740 mmHg 74%
    15:00 +7°C° 0.1 mm 5 mps 740 mmHg 74%
    16:00 +7°C° 0.1 mm 4 mps 741 mmHg 74%
    17:00 +7°C° 0.1 mm 4 mps 741 mmHg 74%
    18:00 +6°C° 0 mm 4 mps 742 mmHg 79%
    19:00 +4°C° 0 mm 4 mps 742 mmHg 84%
    20:00 +3°C° 0 mm 3 mps 743 mmHg 89%
    21:00 +3°C° 0 mm 3 mps 743 mmHg 91%
    22:00 +2°C° 0 mm 3 mps 743 mmHg 92%
    23:00 +2°C° 0 mm 3 mps 744 mmHg 94%

    21 September, Saturday

    Time Temperature Precipitation Wind Pressure Humidity
    00:00 +1°C° 0 mm 3 mps 744 mmHg 94%
    01:00 +1°C° 0 mm 3 mps 744 mmHg 95%
    02:00 +1°C° 0 mm 3 mps 745 mmHg 95%
    03:00 0°C° 0 mm 3 mps 745 mmHg 95%
    04:00 +1°C° 0 mm 2 mps 745 mmHg 95%
    05:00 +1°C° 0 mm 2 mps 745 mmHg 94%
    06:00 +1°C° 0 mm 3 mps 745 mmHg 90%
    07:00 +2°C° 0 mm 3 mps 746 mmHg 86%
    08:00 +3°C° 0 mm 3 mps 746 mmHg 81%
    09:00 +4°C° 0 mm 3 mps 746 mmHg 75%
    10:00 +7°C° 0 mm 3 mps 746 mmHg 68%
    11:00 +7°C° 0 mm 4 mps 746 mmHg 61%
    12:00 +7°C° 0.2 mm 4 mps 746 mmHg 65%
    13:00 +7°C° 0.2 mm 4 mps 746 mmHg 69%
    14:00 +7°C° 0.2 mm 5 mps 745 mmHg 72%
    15:00 +7°C° 0.5 mm 5 mps 745 mmHg 78%
    16:00 +6°C° 0.5 mm 5 mps 745 mmHg 83%
    17:00 +6°C° 0.5 mm 5 mps 744 mmHg 89%
    18:00 +6°C° 0.2 mm 5 mps 744 mmHg 89%
    19:00 +6°C° 0.2 mm 5 mps 744 mmHg 90%
    20:00 +7°C° 0.2 mm 5 mps 744 mmHg 91%
    21:00 +7°C° 0 mm 5 mps 743 mmHg 91%
    22:00 +8°C° 0 mm 5 mps 743 mmHg 92%
    23:00 +9°C° 0 mm 6 mps 743 mmHg 93%

    22 September, Sunday

    Time Temperature Precipitation Wind Pressure Humidity
    00:00 +9°C° 0 mm 6 mps 743 mmHg 93%
    01:00 +9°C° 0 mm 6 mps 743 mmHg 93%
    02:00 +9°C° 0 mm 6 mps 743 mmHg 94%
    03:00 +9°C° 0 mm 6 mps 743 mmHg 94%
    04:00 +8°C° 0 mm 6 mps 743 mmHg 94%
    05:00 +8°C° 0 mm 6 mps 743 mmHg 94%
    06:00 +9°C° 0 mm 6 mps 743 mmHg 92%
    07:00 +9°C° 0 mm 7 mps 743 mmHg 91%
    08:00 +9°C° 0 mm 7 mps 743 mmHg 90%
    09:00 +10°C° 0 mm 7 mps 743 mmHg 86%
    10:00 +11°C° 0 mm 7 mps 743 mmHg 83%
    11:00 +14°C° 0 mm 7 mps 743 mmHg 79%
    12:00 +14°C° 0 mm 7 mps 743 mmHg 77%
    13:00 +15°C° 0 mm 7 mps 743 mmHg 76%
    14:00 +15°C° 0 mm 7 mps 743 mmHg 74%
    15:00 +15°C° 0 mm 6 mps 743 mmHg 77%
    16:00 +15°C° 0 mm 6 mps 743 mmHg 80%
    17:00 +14°C° 0 mm 5 mps 743 mmHg 83%
    18:00 +14°C° 0 mm 4 mps 743 mmHg 85%
    19:00 +13°C° 0 mm 3 mps 744 mmHg 87%
    20:00 +14°C° 0 mm 2 mps 744 mmHg 89%
    21:00 +14°C° 0 mm 2 mps 744 mmHg 89%
    22:00 +14°C° 0 mm 2 mps 745 mmHg 88%
    23:00 +13°C° 0 mm 2 mps 745 mmHg 87%
    Show more